Overview Statistics Trail Chart Weather Telemetry Raw packets
 

This is the latest recevied weather packets stored in our database for station/object N0NB. If no packets are shown the sender has not sent any weather packets the latest 10 day(s).

<< 45 46 47 48 49 50 51 >>
Time Temp. Humidity Pressure Rain* Wind** Luminosity Snow
1787959216 29.44° C 62% 1015.5 hPa 0 mm - 249 W/m² -
1787958616 30° C 61% 1015.7 hPa 0 mm - 277 W/m² -
1787958016 30° C 61% 1015.7 hPa 0 mm - 309 W/m² -
1787957416 30° C 60% 1015.8 hPa 0 mm - 335 W/m² -
1787956816 30° C 61% 1015.9 hPa 0 mm - 367 W/m² -
1787956216 30° C 61% 1015.9 hPa 0 mm - 397 W/m² -
1787955616 30° C 60% 1016 hPa 0 mm - 425 W/m² -
1787955016 30.56° C 60% 1016.2 hPa 0 mm - 455 W/m² -
1787954418 30° C 60% 1016.2 hPa 0 mm - 482 W/m² -
1787953819 30.56° C 61% 1016.4 hPa 0 mm - 508 W/m² -
1787953216 30° C 60% 1016.4 hPa 0 mm - 533 W/m² -
1787952616 30° C 59% 1016.6 hPa 0 mm - 558 W/m² -
1787952016 30° C 59% 1016.8 hPa 0 mm - 582 W/m² -
1787951416 30° C 60% 1016.8 hPa 0 mm - 602 W/m² -
1787950816 30° C 59% 1017 hPa 0 mm - 621 W/m² -
1787950216 30° C 59% 1017 hPa 0 mm - 641 W/m² -
1787949616 30° C 61% 1017.1 hPa 0 mm - 660 W/m² -
1787949016 30° C 61% 1017.1 hPa 0 mm - 676 W/m² -
1787948416 30° C 60% 1017.3 hPa 0 mm - 693 W/m² -
1787947816 29.44° C 64% 1017.4 hPa 0 mm - 708 W/m² -
1787947216 29.44° C 60% 1017.6 hPa 0 mm - 720 W/m² -
1787946616 29.44° C 61% 1017.7 hPa 0 mm - 732 W/m² -
1787946016 29.44° C 63% 1017.8 hPa 0 mm - 738 W/m² -
1787945416 29.44° C 63% 1018 hPa 0 mm - 748 W/m² -
1787944816 29.44° C 62% 1018 hPa 0 mm - 757 W/m² -

* Rain latest hour (hover to see other rain measurements)
** Current wind speed in m/s (hover to see current wind gust speed)